^^
B2 Weather Station Historical Data
Daily Summary for April 23, 2018 Units:  English    Metric   Both
Daily Weekly Monthly Yearly Custom
  High: Low: Average:
Temperature: 68.4 °F 36.9 °F 49.4 °F
Dew Point: 46.0 °F 29.1 °F 37.6 °F
Humidity: 95% 41% 66%
Wind Speed: 17.3mph 0.0mph 6mph
Wind Gust: 17.3mph - -
Wind- - NE
Pressure: 30.21 in 30.05 in -
Precipitation: 0.05 in    
Historical Graphs
 
 
Tabular Data for April 23, 2018
Time Temperature Dew Point Pressure Wind Wind Speed Wind Gust Humidity Rainfall Rate (Hourly) solar
00:01 40.2 °F 32.6 °F 30.21 in Calm     74% 0.00 in 0.0 W/m2
00:06 40.0 °F 32.7 °F 30.21 in Calm     75% 0.00 in 0.0 W/m2
00:11 39.8 °F 32.5 °F 30.21 in Calm     75% 0.00 in 0.0 W/m2
00:16 39.7 °F 32.4 °F 30.21 in Calm     75% 0.00 in 0.0 W/m2
00:21 39.6 °F 32.0 °F 30.21 in Calm     74% 0.00 in 0.0 W/m2
00:26 39.5 °F 31.9 °F 30.21 in Calm     74% 0.00 in 0.0 W/m2
00:31 39.5 °F 31.9 °F 30.21 in Calm     74% 0.00 in 0.0 W/m2
00:36 39.5 °F 31.9 °F 30.21 in Calm     74% 0.00 in 0.0 W/m2
00:41 39.6 °F 32.0 °F 30.21 in Calm     74% 0.00 in 0.0 W/m2
00:46 39.7 °F 31.8 °F 30.21 in Calm     73% 0.00 in 0.0 W/m2
00:51 39.7 °F 31.8 °F 30.21 in Calm     73% 0.00 in 0.0 W/m2
00:56 39.6 °F 31.7 °F 30.20 in Calm     73% 0.00 in 0.0 W/m2
01:01 39.3 °F 31.4 °F 30.20 in Calm     73% 0.00 in 0.0 W/m2
01:06 39.3 °F 31.4 °F 30.19 in Calm     73% 0.00 in 0.0 W/m2
01:12 39.3 °F 31.4 °F 30.19 in Calm     73% 0.00 in 0.0 W/m2
01:17 39.3 °F 31.4 °F 30.19 in Calm     73% 0.00 in 0.0 W/m2
01:22 39.0 °F 31.1 °F 30.19 in Calm     73% 0.00 in 0.0 W/m2
01:27 38.4 °F 30.8 °F 30.19 in Calm     74% 0.00 in 0.0 W/m2
01:32 38.1 °F 30.9 °F 30.19 in Calm     75% 0.00 in 0.0 W/m2
01:37 37.7 °F 30.5 °F 30.19 in Calm     75% 0.00 in 0.0 W/m2
01:42 37.5 °F 30.3 °F 30.19 in Calm     75% 0.00 in 0.0 W/m2
01:47 37.4 °F 30.5 °F 30.19 in Calm     76% 0.00 in 0.0 W/m2
01:52 37.4 °F 30.5 °F 30.19 in Calm     76% 0.00 in 0.0 W/m2
01:57 37.7 °F 30.5 °F 30.19 in Calm     75% 0.00 in 0.0 W/m2
02:02 37.9 °F 30.4 °F 30.18 in Calm     74% 0.00 in 0.0 W/m2
02:07 37.8 °F 30.6 °F 30.18 in Calm     75% 0.00 in 0.0 W/m2
02:12 37.9 °F 30.4 °F 30.18 in Calm     74% 0.00 in 0.0 W/m2
02:17 37.7 °F 30.2 °F 30.18 in Calm     74% 0.00 in 0.0 W/m2
02:22 37.6 °F 30.1 °F 30.18 in Calm     74% 0.00 in 0.0 W/m2
02:27 37.5 °F 30.0 °F 30.18 in Calm     74% 0.00 in 0.0 W/m2
02:32 37.5 °F 30.0 °F 30.18 in Calm     74% 0.00 in 0.0 W/m2
02:37 37.5 °F 30.0 °F 30.18 in Calm     74% 0.00 in 0.0 W/m2
02:42 37.5 °F 29.6 °F 30.17 in Calm     73% 0.00 in 0.0 W/m2
02:47 37.5 °F 29.6 °F 30.17 in Calm     73% 0.00 in 0.0 W/m2
02:52 37.4 °F 29.9 °F 30.17 in Calm     74% 0.00 in 0.0 W/m2
02:57 37.6 °F 30.1 °F 30.17 in Calm     74% 0.00 in 0.0 W/m2
03:02 37.8 °F 29.9 °F 30.17 in Calm     73% 0.00 in 0.0 W/m2
03:07 37.9 °F 30.0 °F 30.17 in Calm     73% 0.00 in 0.0 W/m2
03:12 37.9 °F 30.0 °F 30.17 in Calm     73% 0.00 in 0.0 W/m2
03:17 37.9 °F 30.0 °F 30.17 in Calm     73% 0.00 in 0.0 W/m2
03:22 37.7 °F 29.8 °F 30.17 in Calm     73% 0.00 in 0.0 W/m2
03:27 37.4 °F 29.5 °F 30.17 in Calm     73% 0.00 in 0.0 W/m2
03:32 37.1 °F 29.6 °F 30.17 in Calm     74% 0.00 in 0.0 W/m2
03:37 37.0 °F 29.5 °F 30.17 in Calm     74% 0.00 in 0.0 W/m2
03:42 36.9 °F 29.4 °F 30.17 in Calm     74% 0.00 in 0.0 W/m2
03:47 36.9 °F 29.4 °F 30.17 in Calm     74% 0.00 in 0.0 W/m2
03:49 36.9 °F 29.4 °F 30.17 in Calm     74% 0.00 in 0.0 W/m2
03:53 36.9 °F 29.1 °F 30.17 in Calm     73% 0.00 in 0.0 W/m2
03:55 37.0 °F 29.1 °F 30.17 in Calm     73% 0.00 in 0.0 W/m2
03:56 37.0 °F 29.1 °F 30.17 in Calm     73% 0.00 in 0.0 W/m2
03:57 37.0 °F 29.1 °F 30.17 in Calm     73% 0.00 in 0.0 W/m2
03:58 37.0 °F 29.1 °F 30.17 in Calm     73% 0.00 in 0.0 W/m2
03:59 37.0 °F 29.1 °F 30.17 in Calm     73% 0.00 in 0.0 W/m2
04:00 37.1 °F 29.2 °F 30.17 in Calm     73% 0.00 in 0.0 W/m2
04:02 37.1 °F 29.2 °F 30.17 in Calm     73% 0.00 in 0.0 W/m2
04:03 37.2 °F 29.3 °F 30.17 in Calm     73% 0.00 in 0.0 W/m2
04:04 37.2 °F 29.3 °F 30.17 in Calm     73% 0.00 in 0.0 W/m2
04:05 37.3 °F 29.4 °F 30.17 in Calm     73% 0.00 in 0.0 W/m2
04:07 37.3 °F 29.4 °F 30.17 in Calm     73% 0.00 in 0.0 W/m2
04:08 37.3 °F 29.4 °F 30.17 in Calm     73% 0.00 in 0.0 W/m2
04:09 37.4 °F 29.5 °F 30.17 in Calm     73% 0.00 in 0.0 W/m2
04:10 37.4 °F 29.5 °F 30.17 in Calm     73% 0.00 in 0.0 W/m2
04:12 37.4 °F 29.2 °F 30.17 in Calm     72% 0.00 in 0.0 W/m2
04:14 37.5 °F 29.3 °F 30.17 in Calm     72% 0.00 in 0.0 W/m2
04:19 37.6 °F 29.4 °F 30.17 in NE 2.3 mph 2.3 mph 72% 0.00 in 0.0 W/m2
04:22 37.7 °F 29.5 °F 30.17 in NE 3.5 mph 3.5 mph 72% 0.00 in 0.0 W/m2
04:24 37.7 °F 29.5 °F 30.17 in Calm     72% 0.00 in 0.0 W/m2
04:29 38.0 °F 29.8 °F 30.17 in NE 2.3 mph 2.3 mph 72% 0.00 in 0.0 W/m2
04:30 38.0 °F 29.4 °F 30.17 in NNE 2.3 mph 2.3 mph 71% 0.00 in 0.0 W/m2
04:35 38.2 °F 29.6 °F 30.17 in NE 2.3 mph 2.3 mph 71% 0.00 in 0.0 W/m2
04:37 38.2 °F 29.6 °F 30.17 in Calm     71% 0.00 in 0.0 W/m2
04:38 38.2 °F 29.6 °F 30.16 in NE 3.0 mph 3.0 mph 71% 0.00 in 0.0 W/m2
04:43 38.4 °F 29.8 °F 30.16 in Calm     71% 0.00 in 0.0 W/m2
04:48 38.5 °F 29.6 °F 30.16 in Calm     70% 0.00 in 0.0 W/m2
04:53 38.6 °F 29.7 °F 30.16 in Calm     70% 0.00 in 0.0 W/m2
04:59 38.7 °F 29.8 °F 30.16 in Calm     70% 0.00 in 0.0 W/m2
05:04 38.8 °F 29.8 °F 30.16 in NNE 4.0 mph 4.0 mph 70% 0.00 in 0.0 W/m2
05:09 38.8 °F 29.8 °F 30.16 in NNE 3.5 mph 3.5 mph 70% 0.00 in 0.0 W/m2
05:11 38.8 °F 29.8 °F 30.16 in NNE 3.5 mph 3.5 mph 70% 0.00 in 0.0 W/m2
05:15 38.8 °F 29.8 °F 30.16 in North 3.5 mph 3.5 mph 70% 0.00 in 0.0 W/m2
05:17 38.8 °F 30.2 °F 30.16 in North 3.5 mph 3.5 mph 71% 0.00 in 0.0 W/m2
05:24 38.6 °F 30.4 °F 30.16 in North 3.5 mph 3.5 mph 72% 0.00 in 0.0 W/m2
05:26 38.5 °F 30.3 °F 30.16 in Calm     72% 0.00 in 0.0 W/m2
05:35 38.4 °F 30.2 °F 30.16 in North 3.5 mph 3.5 mph 72% 0.00 in 0.0 W/m2
05:37 38.4 °F 30.2 °F 30.16 in North 3.5 mph 3.5 mph 72% 0.00 in 0.0 W/m2
05:40 38.4 °F 30.2 °F 30.16 in North 3.5 mph 3.5 mph 72% 0.00 in 0.0 W/m2
05:44 38.4 °F 30.2 °F 30.16 in North 3.5 mph 3.5 mph 72% 0.00 in 0.0 W/m2
05:45 38.4 °F 30.2 °F 30.16 in NNE 3.5 mph 3.5 mph 72% 0.00 in 0.0 W/m2
05:46 38.5 °F 30.3 °F 30.16 in North 2.3 mph 2.3 mph 72% 0.00 in 0.0 W/m2
05:48 38.5 °F 30.3 °F 30.16 in North 3.5 mph 3.5 mph 72% 0.00 in 0.0 W/m2
05:49 38.4 °F 30.2 °F 30.16 in North 3.5 mph 3.5 mph 72% 0.00 in 0.0 W/m2
05:51 38.4 °F 30.2 °F 30.16 in NNE 3.0 mph 3.0 mph 72% 0.00 in 0.0 W/m2
05:53 38.4 °F 30.5 °F 30.16 in North 2.3 mph 2.3 mph 73% 0.00 in 0.0 W/m2
05:56 38.4 °F 30.5 °F 30.16 in North 2.3 mph 2.3 mph 73% 0.00 in 0.0 W/m2
05:57 38.4 °F 30.5 °F 30.16 in North 2.3 mph   73% 0.00 in 0.0 W/m2
05:58 38.3 °F 30.4 °F 30.16 in Calm     73% 0.00 in 0.0 W/m2
06:03 38.3 °F 30.4 °F 30.16 in North 2.3 mph 2.3 mph 73% 0.00 in 0.0 W/m2
06:08 38.2 °F 30.6 °F 30.16 in North 3.5 mph 3.5 mph 74% 0.00 in 5.0 W/m2
06:10 38.2 °F 30.6 °F 30.16 in North 3.0 mph 3.0 mph 74% 0.00 in 7.0 W/m2
06:15 38.1 °F 30.9 °F 30.16 in North 2.3 mph 2.3 mph 75% 0.00 in 14.0 W/m2
06:20 38.2 °F 31.0 °F 30.16 in Calm     75% 0.00 in 21.0 W/m2
06:21 38.2 °F 31.0 °F 30.16 in Calm     75% 0.00 in 21.0 W/m2
06:26 38.3 °F 31.1 °F 30.16 in Calm     75% 0.00 in 26.0 W/m2
06:31 38.5 °F 31.3 °F 30.16 in Calm     75% 0.00 in 35.0 W/m2
06:36 38.9 °F 32.0 °F 30.16 in Calm     76% 0.00 in 47.0 W/m2
06:41 39.7 °F 32.8 °F 30.16 in Calm     76% 0.00 in 51.0 W/m2
06:46 40.3 °F 32.7 °F 30.16 in North 3.5 mph 3.5 mph 74% 0.00 in 47.0 W/m2
06:51 40.7 °F 32.7 °F 30.16 in NNE 5.0 mph 5.0 mph 73% 0.00 in 49.0 W/m2
06:56 41.2 °F 33.2 °F 30.16 in North 4.6 mph 4.6 mph 73% 0.00 in 51.0 W/m2
07:01 41.7 °F 33.0 °F 30.16 in North 4.6 mph 4.6 mph 71% 0.00 in 54.0 W/m2
07:06 42.2 °F 33.1 °F 30.16 in North 5.8 mph 5.8 mph 70% 0.00 in 62.0 W/m2
07:11 42.7 °F 32.5 °F 30.16 in NNE 6.0 mph 6.0 mph 67% 0.00 in 69.0 W/m2
07:16 43.2 °F 32.6 °F 30.16 in NNE 6.9 mph 6.9 mph 66% 0.00 in 81.0 W/m2
07:21 43.8 °F 32.8 °F 30.16 in NNE 4.6 mph 4.6 mph 65% 0.00 in 86.0 W/m2
07:26 44.2 °F 32.8 °F 30.16 in NE 8.1 mph 8.1 mph 64% 0.00 in 86.0 W/m2
07:31 44.6 °F 33.2 °F 30.16 in NNE 4.6 mph 4.6 mph 64% 0.00 in 84.0 W/m2
07:36 44.9 °F 33.5 °F 30.16 in NE 5.0 mph 5.0 mph 64% 0.00 in 84.0 W/m2
07:41 45.4 °F 33.1 °F 30.16 in NNE 5.8 mph 5.8 mph 62% 0.00 in 88.0 W/m2
07:46 45.8 °F 33.5 °F 30.16 in NNE 3.5 mph 3.5 mph 62% 0.00 in 97.0 W/m2
07:51 46.2 °F 33.5 °F 30.16 in NE 6.9 mph 6.9 mph 61% 0.00 in 107.0 W/m2
07:56 46.6 °F 33.9 °F 30.16 in NE 8.1 mph 8.1 mph 61% 0.00 in 120.0 W/m2
08:01 47.0 °F 33.8 °F 30.17 in NE 6.9 mph 6.9 mph 60% 0.00 in 132.0 W/m2
08:06 47.4 °F 33.8 °F 30.17 in NE 11.5 mph 11.5 mph 59% 0.00 in 146.0 W/m2
08:11 47.8 °F 34.2 °F 30.17 in NE 6.9 mph 6.9 mph 59% 0.00 in 162.0 W/m2
08:16 48.3 °F 34.2 °F 30.17 in NE 6.9 mph 6.9 mph 58% 0.00 in 181.0 W/m2
08:21 48.8 °F 34.7 °F 30.17 in NNE 6.9 mph 6.9 mph 58% 0.00 in 211.0 W/m2
08:26 49.4 °F 35.2 °F 30.17 in NE 9.2 mph 9.2 mph 58% 0.00 in 279.0 W/m2
08:31 50.1 °F 34.1 °F 30.17 in ENE 10.4 mph 10.4 mph 54% 0.00 in 281.0 W/m2
08:36 50.7 °F 34.6 °F 30.16 in NE 10.4 mph 10.4 mph 54% 0.00 in 311.0 W/m2
08:41 51.2 °F 34.6 °F 30.16 in NE 10.4 mph 10.4 mph 53% 0.00 in 288.0 W/m2
08:46 51.6 °F 35.0 °F 30.16 in ENE 10.4 mph 10.4 mph 53% 0.00 in 348.0 W/m2
08:51 52.2 °F 34.6 °F 30.16 in NE 11.0 mph 11.0 mph 51% 0.00 in 369.0 W/m2
08:56 52.4 °F 34.8 °F 30.15 in NE 10.4 mph 10.4 mph 51% 0.00 in 288.0 W/m2
09:01 52.7 °F 35.1 °F 30.15 in NE 12.7 mph 12.7 mph 51% 0.00 in 374.0 W/m2
09:06 53.0 °F 34.8 °F 30.15 in NE 10.4 mph 10.4 mph 50% 0.00 in 406.0 W/m2
09:11 53.8 °F 35.6 °F 30.15 in ENE 13.0 mph 13.0 mph 50% 0.00 in 443.0 W/m2
09:16 53.9 °F 34.6 °F 30.15 in ENE 10.4 mph 10.4 mph 48% 0.00 in 325.0 W/m2
09:19 53.8 °F 35.1 °F 30.15 in NE 9.2 mph 9.2 mph 49% 0.00 in 274.0 W/m2
09:21 53.8 °F 35.1 °F 30.15 in NE 11.5 mph 11.5 mph 49% 0.00 in 369.0 W/m2
09:26 54.0 °F 35.3 °F 30.15 in NE 13.8 mph 13.8 mph 49% 0.00 in 294.0 W/m2
09:28 54.0 °F 35.3 °F 30.15 in NE 11.5 mph 11.5 mph 49% 0.00 in 281.0 W/m2
09:33 53.8 °F 34.6 °F 30.15 in NE 11.5 mph 11.5 mph 48% 0.00 in 246.0 W/m2
09:38 54.0 °F 34.7 °F 30.15 in ENE 9.2 mph 9.2 mph 48% 0.00 in 392.0 W/m2
09:43 54.6 °F 35.3 °F 30.15 in ENE 12.7 mph 12.7 mph 48% 0.00 in 427.0 W/m2
09:48 55.4 °F 36.0 °F 30.15 in NE 11.5 mph 11.5 mph 48% 0.00 in 469.0 W/m2
09:53 55.9 °F 35.9 °F 30.15 in NE 11.5 mph 11.5 mph 47% 0.00 in 459.0 W/m2
09:58 56.3 °F 36.3 °F 30.15 in NNE 11.0 mph 11.0 mph 47% 0.00 in 568.0 W/m2
10:03 57.0 °F 36.4 °F 30.14 in ENE 11.0 mph 11.0 mph 46% 0.00 in 446.0 W/m2
10:08 57.0 °F 36.4 °F 30.14 in ENE 11.5 mph 11.5 mph 46% 0.00 in 357.0 W/m2
10:13 56.9 °F 36.9 °F 30.14 in NNE 9.2 mph 9.2 mph 47% 0.00 in 468.0 W/m2
10:18 57.5 °F 37.9 °F 30.14 in NNE 9.0 mph 9.0 mph 48% 0.00 in 686.0 W/m2
10:23 58.4 °F 36.6 °F 30.14 in NE 10.4 mph 10.4 mph 44% 0.00 in 309.0 W/m2
10:28 57.6 °F 37.0 °F 30.14 in ENE 10.4 mph 10.4 mph 46% 0.00 in 357.0 W/m2
10:33 57.7 °F 38.1 °F 30.14 in NNE 11.5 mph 11.5 mph 48% 0.00 in 687.0 W/m2
10:38 58.6 °F 37.9 °F 30.13 in NE 11.5 mph 11.5 mph 46% 0.00 in 598.0 W/m2
10:43 59.1 °F 37.8 °F 30.14 in NE 9.2 mph 9.2 mph 45% 0.00 in 733.0 W/m2
10:48 59.5 °F 37.6 °F 30.13 in ENE 11.5 mph 11.5 mph 44% 0.00 in 455.0 W/m2
10:53 59.2 °F 37.3 °F 30.14 in NE 12.7 mph 12.7 mph 44% 0.00 in 371.0 W/m2
10:58 58.9 °F 37.6 °F 30.13 in NE 10.4 mph 10.4 mph 45% 0.00 in 480.0 W/m2
11:03 59.3 °F 37.9 °F 30.13 in NE 9.2 mph 9.2 mph 45% 0.00 in 478.0 W/m2
11:08 60.2 °F 38.8 °F 30.13 in NE 6.9 mph 6.9 mph 45% 0.00 in 596.0 W/m2
11:13 60.2 °F 38.2 °F 30.13 in NE 9.2 mph 9.2 mph 44% 0.00 in 410.0 W/m2
11:18 59.9 °F 38.5 °F 30.12 in NE 12.0 mph 12.0 mph 45% 0.00 in 392.0 W/m2
11:23 59.8 °F 38.4 °F 30.13 in NE 8.1 mph 8.1 mph 45% 0.00 in 373.0 W/m2
11:28 59.8 °F 39.5 °F 30.12 in NNE 6.0 mph 6.0 mph 47% 0.00 in 348.0 W/m2
11:33 59.8 °F 39.0 °F 30.12 in NE 8.1 mph 8.1 mph 46% 0.00 in 334.0 W/m2
11:38 60.0 °F 39.7 °F 30.12 in NE 8.1 mph 8.1 mph 47% 0.00 in 323.0 W/m2
11:43 60.3 °F 39.4 °F 30.12 in ENE 9.2 mph 9.2 mph 46% 0.00 in 313.0 W/m2
11:46 60.4 °F 38.9 °F 30.12 in NE 10.4 mph 10.4 mph 45% 0.00 in 318.0 W/m2
11:51 60.6 °F 39.7 °F 30.12 in NE 11.5 mph 11.5 mph 46% 0.00 in 390.0 W/m2
11:56 60.9 °F 39.4 °F 30.11 in NE 6.9 mph 6.9 mph 45% 0.00 in 448.0 W/m2
12:01 61.6 °F 40.6 °F 30.11 in NNE 8.1 mph 8.1 mph 46% 0.00 in 568.0 W/m2
12:06 62.1 °F 39.9 °F 30.11 in NE 12.7 mph 12.7 mph 44% 0.00 in 615.0 W/m2
12:11 62.3 °F 40.7 °F 30.11 in NE 9.2 mph 9.2 mph 45% 0.00 in 482.0 W/m2
12:16 62.1 °F 41.1 °F 30.11 in NNE 11.5 mph 11.5 mph 46% 0.00 in 476.0 W/m2
12:21 62.2 °F 41.2 °F 30.11 in NNE 9.2 mph 9.2 mph 46% 0.00 in 559.0 W/m2
12:26 62.3 °F 41.2 °F 30.11 in NNE 11.5 mph 11.5 mph 46% 0.00 in 545.0 W/m2
12:31 62.8 °F 41.7 °F 30.10 in NE 11.5 mph 11.5 mph 46% 0.00 in 670.0 W/m2
12:36 63.5 °F 41.8 °F 30.10 in NE 13.8 mph 13.8 mph 45% 0.00 in 694.0 W/m2
12:41 64.3 °F 43.1 °F 30.09 in NNE 10.4 mph 10.4 mph 46% 0.00 in 635.0 W/m2
12:46 65.5 °F 44.2 °F 30.08 in North 13.8 mph 13.8 mph 46% 0.00 in 1192.0 W/m2
12:51 65.4 °F 42.9 °F 30.08 in North 12.7 mph 12.7 mph 44% 0.00 in 851.0 W/m2
12:56 65.9 °F 42.8 °F 30.08 in ENE 10.4 mph 10.4 mph 43% 0.00 in 916.0 W/m2
13:01 66.6 °F 42.8 °F 30.08 in NE 9.2 mph 9.2 mph 42% 0.00 in 735.0 W/m2
13:06 67.1 °F 43.8 °F 30.08 in North 10.4 mph 10.4 mph 43% 0.00 in 997.0 W/m2
13:11 67.6 °F 43.7 °F 30.09 in NE 11.5 mph 11.5 mph 42% 0.00 in 844.0 W/m2
13:16 67.3 °F 43.4 °F 30.08 in NE 11.5 mph 11.5 mph 42% 0.00 in 677.0 W/m2
13:21 67.3 °F 42.8 °F 30.08 in NE 11.5 mph 11.5 mph 41% 0.00 in 768.0 W/m2
13:26 67.8 °F 43.2 °F 30.08 in NNE 12.7 mph 12.7 mph 41% 0.00 in 763.0 W/m2
13:31 68.0 °F 43.4 °F 30.08 in NE 11.5 mph 11.5 mph 41% 0.00 in 717.0 W/m2
13:36 68.4 °F 43.8 °F 30.08 in NNE 9.0 mph 9.0 mph 41% 0.00 in 893.0 W/m2
13:41 68.3 °F 43.7 °F 30.08 in NE 9.2 mph 9.2 mph 41% 0.00 in 693.0 W/m2
13:46 67.8 °F 43.9 °F 30.08 in ENE 12.7 mph 12.7 mph 42% 0.00 in 538.0 W/m2
13:51 67.9 °F 44.0 °F 30.08 in NNE 11.5 mph 11.5 mph 42% 0.00 in 499.0 W/m2
13:56 67.4 °F 44.1 °F 30.08 in NNE 11.5 mph 11.5 mph 43% 0.00 in 559.0 W/m2
14:01 67.0 °F 43.8 °F 30.07 in NNE 11.5 mph 11.5 mph 43% 0.00 in 432.0 W/m2
14:06 66.9 °F 44.3 °F 30.07 in NNE 6.9 mph 6.9 mph 44% 0.00 in 404.0 W/m2
14:11 66.8 °F 44.2 °F 30.07 in NE 9.2 mph 9.2 mph 44% 0.00 in 387.0 W/m2
14:16 67.0 °F 43.8 °F 30.07 in NE 9.2 mph 9.2 mph 43% 0.00 in 378.0 W/m2
14:21 66.7 °F 43.5 °F 30.07 in NE 12.7 mph 12.7 mph 43% 0.00 in 394.0 W/m2
14:26 66.6 °F 43.4 °F 30.07 in NE 11.5 mph 11.5 mph 43% 0.00 in 408.0 W/m2
14:31 67.0 °F 44.4 °F 30.07 in ENE 9.2 mph 9.2 mph 44% 0.00 in 427.0 W/m2
14:36 67.1 °F 43.8 °F 30.07 in NE 11.5 mph 11.5 mph 43% 0.00 in 613.0 W/m2
14:41 67.7 °F 44.4 °F 30.06 in ENE 11.5 mph 11.5 mph 43% 0.00 in 568.0 W/m2
14:46 68.1 °F 44.1 °F 30.06 in NE 12.7 mph 12.7 mph 42% 0.00 in 490.0 W/m2
14:48 68.0 °F 43.4 °F 30.06 in ENE 12.7 mph 12.7 mph 41% 0.00 in 424.0 W/m2
14:53 67.4 °F 43.5 °F 30.07 in ENE 13.8 mph 13.8 mph 42% 0.00 in 464.0 W/m2
14:58 67.3 °F 44.6 °F 30.06 in NE 12.7 mph 12.7 mph 44% 0.00 in 408.0 W/m2
15:03 67.1 °F 43.8 °F 30.06 in ENE 12.7 mph 12.7 mph 43% 0.00 in 359.0 W/m2
15:08 66.6 °F 43.4 °F 30.06 in NE 12.7 mph 12.7 mph 43% 0.00 in 353.0 W/m2
15:13 66.0 °F 43.5 °F 30.06 in NNE 11.5 mph 11.5 mph 44% 0.00 in 396.0 W/m2
15:18 66.4 °F 43.8 °F 30.06 in NNE 11.5 mph 11.5 mph 44% 0.00 in 448.0 W/m2
15:23 66.8 °F 44.2 °F 30.06 in NE 11.5 mph 11.5 mph 44% 0.00 in 343.0 W/m2
15:28 67.0 °F 44.4 °F 30.05 in NNE 9.2 mph 9.2 mph 44% 0.00 in 301.0 W/m2
15:33 66.7 °F 44.1 °F 30.05 in NNE 13.8 mph 13.8 mph 44% 0.00 in 274.0 W/m2
15:38 65.9 °F 43.4 °F 30.05 in NNE 12.7 mph 12.7 mph 44% 0.00 in 360.0 W/m2
15:43 66.0 °F 44.6 °F 30.05 in NE 10.4 mph 10.4 mph 46% 0.00 in 385.0 W/m2
15:48 66.6 °F 45.2 °F 30.05 in NE 11.5 mph 11.5 mph 46% 0.00 in 441.0 W/m2
15:53 67.4 °F 44.7 °F 30.05 in NE 11.5 mph 11.5 mph 44% 0.00 in 329.0 W/m2
15:58 67.1 °F 44.4 °F 30.05 in NE 12.7 mph 12.7 mph 44% 0.00 in 214.0 W/m2
16:03 66.2 °F 44.2 °F 30.05 in NNE 13.8 mph 13.8 mph 45% 0.00 in 137.0 W/m2
16:08 65.0 °F 43.7 °F 30.06 in NE 10.4 mph 10.4 mph 46% 0.00 in 114.0 W/m2
16:13 64.3 °F 43.6 °F 30.06 in NE 11.5 mph 11.5 mph 47% 0.00 in 107.0 W/m2
16:18 63.7 °F 43.6 °F 30.06 in NE 11.5 mph 11.5 mph 48% 0.00 in 111.0 W/m2
16:23 63.4 °F 43.4 °F 30.06 in NE 11.5 mph 11.5 mph 48% 0.00 in 142.0 W/m2
16:28 63.2 °F 43.2 °F 30.06 in NE 12.7 mph 12.7 mph 48% 0.00 in 176.0 W/m2
16:33 62.9 °F 43.4 °F 30.06 in NE 11.5 mph 11.5 mph 49% 0.00 in 171.0 W/m2
16:38 62.6 °F 43.7 °F 30.06 in NE 12.7 mph 12.7 mph 50% 0.00 in 163.0 W/m2
16:43 61.7 °F 42.3 °F 30.06 in NE 15.0 mph 15.0 mph 49% 0.00 in 155.0 W/m2
16:48 60.9 °F 42.1 °F 30.06 in NE 12.7 mph 12.7 mph 50% 0.00 in 144.0 W/m2
16:53 60.4 °F 41.7 °F 30.07 in NE 11.5 mph 11.5 mph 50% 0.00 in 153.0 W/m2
16:58 60.0 °F 41.8 °F 30.07 in NNE 17.3 mph 17.3 mph 51% 0.00 in 169.0 W/m2
17:03 59.6 °F 41.4 °F 30.07 in NE 12.7 mph 12.7 mph 51% 0.00 in 174.0 W/m2
17:08 59.3 °F 40.7 °F 30.07 in NE 16.1 mph 16.1 mph 50% 0.00 in 148.0 W/m2
17:13 58.9 °F 41.3 °F 30.08 in NNE 15.0 mph 15.0 mph 52% 0.00 in 153.0 W/m2
17:14 58.8 °F 41.7 °F 30.07 in NE 11.0 mph 11.0 mph 53% 0.00 in 155.0 W/m2
17:19 58.3 °F 42.2 °F 30.07 in NE 14.0 mph 14.0 mph 55% 0.00 in 135.0 W/m2
17:24 57.8 °F 42.7 °F 30.08 in NE 12.7 mph 12.7 mph 57% 0.00 in 116.0 W/m2
17:29 57.3 °F 43.1 °F 30.08 in NE 11.5 mph 11.5 mph 59% 0.00 in 104.0 W/m2
17:34 56.8 °F 43.1 °F 30.08 in NE 11.5 mph 11.5 mph 60% 0.00 in 86.0 W/m2
17:39 56.7 °F 42.5 °F 30.08 in NE 11.5 mph 11.5 mph 59% 0.00 in 60.0 W/m2
17:44 56.4 °F 42.2 °F 30.08 in NE 11.5 mph 11.5 mph 59% 0.00 in 33.0 W/m2
17:49 56.1 °F 42.0 °F 30.08 in ENE 10.4 mph 10.4 mph 59% 0.00 in 32.0 W/m2
17:55 55.9 °F 42.2 °F 30.08 in NE 10.4 mph 10.4 mph 60% 0.00 in 39.0 W/m2
18:00 55.5 °F 41.8 °F 30.08 in NNE 11.5 mph 11.5 mph 60% 0.00 in 46.0 W/m2
18:05 55.2 °F 42.0 °F 30.08 in NE 11.5 mph 11.5 mph 61% 0.00 in 44.0 W/m2
18:10 54.9 °F 42.5 °F 30.08 in NE 10.4 mph 10.4 mph 63% 0.00 in 42.0 W/m2
18:15 54.5 °F 42.6 °F 30.08 in NE 10.4 mph 10.4 mph 64% 0.00 in 37.0 W/m2
18:20 54.1 °F 43.4 °F 30.08 in NNE 11.5 mph 11.5 mph 67% 0.00 in 32.0 W/m2
18:25 53.3 °F 43.8 °F 30.08 in NNE 6.9 mph 6.9 mph 70% 0.00 in 26.0 W/m2
18:30 52.7 °F 43.9 °F 30.08 in NNE 3.5 mph 3.5 mph 72% 0.00 in 23.0 W/m2
18:35 52.2 °F 43.8 °F 30.08 in NE 4.6 mph 4.6 mph 73% 0.00 in 19.0 W/m2
18:40 51.8 °F 44.1 °F 30.08 in NE 4.0 mph 4.0 mph 75% 0.00 in 18.0 W/m2
18:45 51.4 °F 44.1 °F 30.08 in NE 3.5 mph 3.5 mph 76% 0.00 in 14.0 W/m2
18:50 51.1 °F 44.1 °F 30.08 in NE 3.5 mph 3.5 mph 77% 0.00 in 14.0 W/m2
18:55 50.8 °F 44.2 °F 30.08 in NE 3.5 mph 3.5 mph 78% 0.00 in 14.0 W/m2
19:00 50.6 °F 44.3 °F 30.08 in NE 3.5 mph 3.5 mph 79% 0.00 in 14.0 W/m2
19:05 50.4 °F 44.5 °F 30.08 in NE 2.0 mph 2.0 mph 80% 0.00 in 11.0 W/m2
19:10 50.3 °F 44.7 °F 30.08 in Calm     81% 0.00 in 7.0 W/m2
19:15 50.1 °F 45.1 °F 30.08 in NNE 4.6 mph 4.6 mph 83% 0.00 in 5.0 W/m2
19:20 49.7 °F 44.7 °F 30.08 in NNE 3.5 mph 3.5 mph 83% 0.00 in 0.0 W/m2
19:25 49.3 °F 44.7 °F 30.08 in NE 5.0 mph 5.0 mph 84% 0.00 in 0.0 W/m2
19:30 48.8 °F 44.2 °F 30.08 in NE 6.9 mph 6.9 mph 84% 0.01 in 0.0 W/m2
19:35 48.5 °F 43.9 °F 30.08 in NNE 4.6 mph 4.6 mph 84% 0.01 in 0.0 W/m2
19:40 48.2 °F 43.9 °F 30.09 in NNE 7.0 mph 7.0 mph 85% 0.01 in 0.0 W/m2
19:45 47.9 °F 43.9 °F 30.09 in NE 8.0 mph 8.0 mph 86% 0.01 in 0.0 W/m2
19:50 47.6 °F 43.6 °F 30.09 in NNE 5.8 mph 5.8 mph 86% 0.01 in 0.0 W/m2
19:55 47.3 °F 43.3 °F 30.09 in NE 8.1 mph 8.1 mph 86% 0.01 in 0.0 W/m2
20:00 47.2 °F 43.5 °F 30.09 in NE 6.9 mph 6.9 mph 87% 0.01 in 0.0 W/m2
20:04 47.0 °F 43.3 °F 30.09 in NE 5.8 mph 5.8 mph 87% 0.02 in 0.0 W/m2
20:09 46.9 °F 43.5 °F 30.09 in NE 6.0 mph 6.0 mph 88% 0.02 in 0.0 W/m2
20:14 46.8 °F 43.4 °F 30.09 in NE 4.0 mph 4.0 mph 88% 0.02 in 0.0 W/m2
20:19 46.7 °F 43.6 °F 30.09 in NNE 5.8 mph 5.8 mph 89% 0.02 in 0.0 W/m2
20:24 46.8 °F 43.7 °F 30.09 in NE 4.6 mph 4.6 mph 89% 0.02 in 0.0 W/m2
20:29 46.8 °F 44.0 °F 30.09 in Calm     90% 0.01 in 0.0 W/m2
20:34 46.8 °F 44.0 °F 30.09 in Calm     90% 0.01 in 0.0 W/m2
20:39 46.8 °F 44.0 °F 30.09 in Calm     90% 0.01 in 0.0 W/m2
20:40 46.8 °F 44.0 °F 30.09 in Calm     90% 0.01 in 0.0 W/m2
20:45 46.8 °F 44.0 °F 30.09 in NE 3.5 mph 3.5 mph 90% 0.01 in 0.0 W/m2
20:50 46.8 °F 44.0 °F 30.09 in NNE 3.5 mph 3.5 mph 90% 0.01 in 0.0 W/m2
20:55 46.8 °F 44.0 °F 30.09 in NNE 3.5 mph 3.5 mph 90% 0.01 in 0.0 W/m2
21:00 46.9 °F 44.4 °F 30.09 in Calm     91% 0.01 in 0.0 W/m2
21:05 46.9 °F 44.4 °F 30.09 in NNE 4.0 mph 4.0 mph 91% 0.00 in 0.0 W/m2
21:10 46.9 °F 44.1 °F 30.09 in NNE 1.0 mph 1.0 mph 90% 0.00 in 0.0 W/m2
21:15 46.9 °F 44.1 °F 30.09 in NNE 4.6 mph 4.6 mph 90% 0.00 in 0.0 W/m2
21:20 46.9 °F 44.1 °F 30.09 in North 4.6 mph 4.6 mph 90% 0.01 in 0.0 W/m2
21:25 46.9 °F 44.1 °F 30.09 in NE 4.0 mph 4.0 mph 90% 0.01 in 0.0 W/m2
21:30 46.8 °F 44.0 °F 30.09 in NNE 5.8 mph 5.8 mph 90% 0.01 in 0.0 W/m2
21:35 46.7 °F 43.9 °F 30.09 in NE 5.8 mph 5.8 mph 90% 0.01 in 0.0 W/m2
21:40 46.6 °F 44.1 °F 30.09 in NE 3.5 mph 3.5 mph 91% 0.01 in 0.0 W/m2
21:45 46.5 °F 44.0 °F 30.09 in NNE 4.0 mph 4.0 mph 91% 0.01 in 0.0 W/m2
21:50 46.3 °F 44.1 °F 30.09 in NNE 4.6 mph 4.6 mph 92% 0.01 in 0.0 W/m2
21:55 46.3 °F 44.1 °F 30.09 in Calm     92% 0.01 in 0.0 W/m2
22:00 46.3 °F 44.1 °F 30.09 in NE 4.6 mph 4.6 mph 92% 0.01 in 0.0 W/m2
22:05 46.2 °F 44.0 °F 30.09 in NE 3.5 mph 3.5 mph 92% 0.01 in 0.0 W/m2
22:10 46.3 °F 44.1 °F 30.09 in NNE 5.8 mph 5.8 mph 92% 0.02 in 0.0 W/m2
22:15 46.3 °F 44.1 °F 30.09 in NE 4.6 mph 4.6 mph 92% 0.02 in 0.0 W/m2
22:20 46.3 °F 44.4 °F 30.09 in NNE 3.5 mph 3.5 mph 93% 0.01 in 0.0 W/m2
22:25 46.3 °F 44.4 °F 30.08 in NE 3.5 mph 3.5 mph 93% 0.01 in 0.0 W/m2
22:30 46.3 °F 44.4 °F 30.09 in NNE 5.8 mph 5.8 mph 93% 0.01 in 0.0 W/m2
22:35 46.2 °F 44.3 °F 30.09 in NE 8.1 mph 8.1 mph 93% 0.01 in 0.0 W/m2
22:40 46.0 °F 44.1 °F 30.08 in NNE 5.8 mph 5.8 mph 93% 0.02 in 0.0 W/m2
22:45 45.9 °F 44.0 °F 30.08 in NE 6.9 mph 6.9 mph 93% 0.02 in 0.0 W/m2
22:50 45.9 °F 44.3 °F 30.08 in NNE 8.1 mph 8.1 mph 94% 0.02 in 0.0 W/m2
22:52 46.0 °F 44.4 °F 30.08 in NNE 6.9 mph 6.9 mph 94% 0.02 in 0.0 W/m2
22:58 46.1 °F 44.5 °F 30.08 in NE 3.5 mph 3.5 mph 94% 0.02 in 0.0 W/m2
23:03 46.2 °F 44.6 °F 30.08 in NNE 5.8 mph 5.8 mph 94% 0.02 in 0.0 W/m2
23:08 46.4 °F 44.8 °F 30.08 in NNE 5.8 mph 5.8 mph 94% 0.02 in 0.0 W/m2
23:13 46.4 °F 44.8 °F 30.08 in NNE 5.8 mph 5.8 mph 94% 0.01 in 0.0 W/m2
23:18 46.5 °F 44.9 °F 30.08 in NNE 6.9 mph 6.9 mph 94% 0.01 in 0.0 W/m2
23:23 46.7 °F 45.1 °F 30.07 in NNE 5.8 mph 5.8 mph 94% 0.01 in 0.0 W/m2
23:28 46.8 °F 45.2 °F 30.07 in NE 5.8 mph 5.8 mph 94% 0.01 in 0.0 W/m2
23:33 46.9 °F 45.3 °F 30.07 in NE 6.9 mph 6.9 mph 94% 0.01 in 0.0 W/m2
23:38 47.0 °F 45.4 °F 30.07 in NNE 5.8 mph 5.8 mph 94% 0.01 in 0.0 W/m2
23:43 47.0 °F 45.4 °F 30.07 in NE 5.8 mph 5.8 mph 94% 0.00 in 0.0 W/m2
23:48 47.1 °F 45.7 °F 30.07 in NE 6.9 mph 6.9 mph 95% 0.00 in 0.0 W/m2
23:53 47.3 °F 45.7 °F 30.07 in NE 6.9 mph 6.9 mph 94% 0.00 in 0.0 W/m2
23:58 47.4 °F 46.0 °F 30.07 in NE 5.8 mph 5.8 mph 95% 0.00 in 0.0 W/m2
Bourbonnais, Illinois, USA
Compliments of Weather Underground - 4 mb